Location: Pedro
(43.9050°N, 104.3408°W)
Time: 22:15:17
(UTC+00:00)

Tiros 1 - Visible Passes

Search period start: 28 May 2022 00:00
Search period end: 07 June 2022 00:00
Orbit: 629 x 663 km, 48.4° (Epoch: 27 May)

Date Brightness Start Highest point End Pass type
(mag) Time Alt. Az. Time Alt. Az. Time Alt. Az.
28 May 8.8 06:36:45 21° E 06:36:45 21° E 06:38:32 10° ENE visible
28 May 7.4 08:14:20 34° W 08:16:15 66° NNW 08:20:55 10° ENE visible
28 May 8.1 09:54:21 10° WNW 09:58:52 48° N 10:03:25 10° ENE visible
29 May 7.3 07:00:34 59° E 07:00:34 59° E 07:04:27 10° ENE visible
29 May 7.9 08:38:09 13° W 08:42:11 51° N 08:46:45 10° ENE visible
29 May 7.9 10:20:15 10° WNW 10:24:51 56° NNE 10:29:29 10° E visible
30 May 9.0 05:46:38 17° E 05:46:38 17° E 05:47:51 10° ENE visible
30 May 7.3 07:24:12 43° W 07:25:35 69° NNW 07:30:13 10° ENE visible
30 May 8.1 09:03:41 10° WNW 09:08:11 48° N 09:12:43 10° ENE visible
31 May 7.3 06:09:56 57° E 06:09:56 57° E 06:13:46 10° ENE visible
31 May 7.9 07:47:28 13° W 07:51:30 52° N 07:56:04 10° ENE visible
31 May 7.9 09:29:35 10° WNW 09:34:10 55° NNE 09:38:46 10° E visible
01 Jun 8.3 04:54:49 25° E 04:54:49 25° E 04:57:08 10° ENE visible
01 Jun 7.2 06:32:13 24° W 06:34:55 72° NNW 06:39:34 10° ENE visible
01 Jun 8.1 08:13:00 10° WNW 08:17:30 47° N 08:22:01 10° ENE visible
01 Jun 7.3 09:55:24 10° WNW 10:00:03 76° NNE 10:04:45 10° ESE visible
02 Jun 8.6 03:34:16 10° S 03:36:59 16° SE 03:39:41 10° E visible
02 Jun 7.0 05:13:56 10° SW 05:18:31 66° SSE 05:23:06 10° ENE visible
02 Jun 7.8 06:56:18 10° W 07:00:49 53° N 07:05:23 10° ENE visible
02 Jun 7.9 08:38:56 10° WNW 08:43:29 53° N 08:48:04 10° E visible
02 Jun 7.1 10:21:11 10° WNW 10:25:48 66° SSW 10:30:27 10° SE visible
03 Jun 7.7 03:58:14 10° SSW 04:02:19 32° SE 04:06:25 10° E visible
03 Jun 7.2 05:39:38 10° WSW 05:44:15 76° NNW 05:48:54 10° ENE visible
03 Jun 8.1 07:22:19 10° WNW 07:26:48 47° N 07:31:19 10° ENE visible
03 Jun 7.3 09:04:44 10° WNW 09:09:23 73° NNE 09:14:04 10° ESE visible
04 Jun 7.0 04:23:19 10° SW 04:27:52 62° SSE 04:32:26 10° ENE visible
04 Jun 7.8 06:05:36 10° W 06:10:08 54° NNW 06:14:42 10° ENE visible
04 Jun 7.9 07:48:16 10° WNW 07:52:48 52° N 07:57:21 10° E visible
04 Jun 7.0 09:30:31 10° WNW 09:35:09 71° SSW 09:39:48 10° SE visible
05 Jun 7.9 03:07:42 10° SSW 03:11:42 29° SE 03:15:43 10° E visible
05 Jun 7.2 04:48:58 10° WSW 04:53:34 80° NNW 04:58:14 10° ENE visible
05 Jun 8.1 06:31:39 10° WNW 06:36:07 47° N 06:40:37 10° ENE visible
05 Jun 7.4 08:14:05 10° WNW 08:18:42 69° NNE 08:23:21 10° ESE visible
05 Jun 7.6 09:56:27 10° WNW 10:00:44 38° SW 10:05:03 10° SSE visible
06 Jun 7.1 03:32:42 10° SW 03:37:12 57° SSE 03:41:45 10° ENE visible
06 Jun 7.8 05:14:54 10° W 05:19:27 56° NNW 05:24:01 10° ENE visible
06 Jun 7.9 06:57:35 10° WNW 07:02:07 51° N 07:06:38 10° E visible
06 Jun 6.9 08:39:51 10° WNW 08:44:29 76° SSW 08:49:09 10° ESE visible
06 Jun 8.4 10:22:53 10° W 10:26:07 19° SW 10:29:23 10° S visible
